SCP
0 0 0 0 0 0 0 0 0 0 0 0 0 0 0 0 0 0 0 0 0 0 0 0 0 0 0 0 0 0 0 0 0 0 0 0 0 0 0 0 0 0 0 0
0 0 0 0 0 0 0 0 0 0 0 0 0 0 0 0 0 0 0 0 0 0 0 0 0 0 0 0 0 0 0 0 0 0 0 0 0 0 0 0 0 0 0 0
0 0 0 0 0 0 0 0 0 0 0 0 0 0 0 0 0 0 0 0 0 0 0 0 0 0 0 0 0 0 0 0 0 0 0 0 0 0 0 0 0 0 0 0
0 0 0 0 0 0 0 0 0 0 0 0 0 0 0 0 0 0 0 0 0 0 0 0 0 0 0 0 0 0 0 0 0 0 0 0 0 0 0 0 0 0 0 0
0 0 0 0 0 0 0 0 0 0 0 0 0 0 0 0 0 0 0 0 0 0 0 0 0 0 0 0 0 0 0 0 0 0 0 0 0 0 0 0 0 0 0 0
0 0 0 0 0 0 0 0 0 0 0 0 0 0 0 0 0 0 0 0 0 0 0 0 0 0 0 0 0 0 0 0 0 0 0 0 0 0 0 0 0 0 0 0
0 0 0 0 0 0 0 0 0 0 0 0 0 0 0 0 0 0 0 0 0 0 0 0 0 0 0 0 0 0 0 0 0 0 0 0 0 0 0 0 0 0 0 0
0 0 0 0 0 0 0 0 0 0 0 0 0 0 0 0 0 0 0 0 0 0 0 0 0 0 0 0 0 0 0 0 0 0 0 0 0 0 0 0 0 0 0 0
0 0 0 0 0 0 0 0 0 0 0 0 0 0 0 0 0 0 0 0 0 0 0 0 0 0 0 0 0 0 0 0 0 0 0 0 0 0 0 0 0 0 0 0
0 0 0 0 0 0 0 0 0 0 0 0 0 0 0 0 0 0 0 0 0 0 0 0 0 0 0 0 0 0 0 0 0 0 0 0 0 0 0 0 0 0 0 0
0 0 0 0 0 0 0 0 0 0 0 0 0 0 0 0 0 0 0 0 0 0 0 0 0 0 0 0 0 0 0 0 0 0 0 0 0 0 0 0 0 0 0 0
0 0 0 0 0 0 0 0 0 0 0 0 0 0 0 0 0 0 0 0 0 0 0 0 0 0 0 0 0 0 0 0 0 0 0 0 0 0 0 0 0 0 0 0
0 0 0 0 0 0 0 0 0 0 0 0 0 0 0 0 0 0 0 0 0 0 0 0 0 0 0 0 0 0 0 0 0 0 0 0 0 0 0 0 0 0 0 0
0 0 0 0 0 0 0 0 0 0 0 0 0 0 0 0 0 0 0 0 0 0 0 0 0 0 0 0 0 0 0 0 0 0 0 0 0 0 0 0 0 0 0 0
0 0 0 0 0 0 0 0 0 0 0 0 0 0 0 0 0 0 0 0 0 0 0 0 0 0 0 0 0 0 0 0 0 0 0 0 0 0 0 0 0 0 0 0
0 0 0 0 0 0 0 0 0 0 0 0 0 0 0 0 0 0 0 0 0 0 0 0 0 0 0 0 0 0 0 0 0 0 0 0 0 0 0 0 0 0 0 0
0 0 0 0 0 0 0 0 0 0 0 0 0 0 0 0 0 0 0 0 0 0 0 0 0 0 0 0 0 0 0 0 0 0 0 0 0 0 0 0 0 0 0 0
0 0 0 0 0 0 0 0 0 0 0 0 0 0 0 0 0 0 0 0 0 0 0 0 0 0 0 0 0 0 0 0 0 0 0 0 0 0 0 0 0 0 0 0
0 0 0 0 0 0 0 0 0 0 0 0 0 0 0 0 0 0 0 0 0 0 0 0 0 0 0 0 0 0 0 0 0 0 0 0 0 0 0 0 0 0 0 0
0 0 0 0 0 0 0 0 0 0 0 0 0 0 0 0 0 0 0 0 0 0 0 0 0 0 0 0 0 0 0 0 0 0 0 0 0 0 0 0 0 0 0 0
0 0 0 0 0 0 0 0 0 0 0 0 0 0 0 0 0 0 0 0 0 0 0 0 0 0 0 0 0 0 0 0 0 0 0 0 0 0 0 0 0 0 0 0
0 0 0 0 0 0 0 0 0 0 0 0 0 0 0 0 0 0 0 0 0 0 0 0 0 0 0 0 0 0 0 0 0 0 0 0 0 0 0 0 0 0 0 0
0 0 0 0 0 0 0 0 0 0 0 0 0 0 0 0 0 0 0 0 0 0 0 0 0 0 0 0 0 0 0 0 0 0 0 0 0 0 0 0 0 0 0 0
0 0 0 0 0 0 0 0 0 0 0 0 0 0 0 0 0 0 0 0 0 0 0 0 0 0 0 0 0 0 0 0 0 0 0 0 0 0 0 0 0 0 0 0
0 0 0 0 0 0 0 0 0 0 0 0 0 0 0 0 0 0 0 0 0 0 0 0 0 0 0 0 0 0 0 0 0 0 0 0 0 0 0 0 0 0 0 0
0 0 0 0 0 0 0 0 0 0 0 0 0 0 0 0 0 0 0 0 0 0 0 0 0 0 0 0 0 0 0 0 0 0 0 0 0 0 0 0 0 0 0 0
0 0 0 0 0 0 0 0 0 0 0 0 0 0 0 0 0 0 0 0 0 0 0 0 0 0 0 0 0 0 0 0 0 0 0 0 0 0 0 0 0 0 0 0
Wind_Speed
4 3 2 5 6 6 8 8 8 9 9 11 7 6 5 4 3 3 3 3 3 3 3 3 3 3 3 3 3 3 4 4 5 4 4 4 5 5 5 5 6 6 6 6
4 3 3 5 7 8 9 8 9 9 12 7 5 3 4 4 4 4 4 4 4 3 3 4 4 4 4 4 4 3 4 5 5 4 4 4 5 5 5 5 5 6 7 7
4 3 3 8 8 8 6 6 7 11 10 3 4 4 5 5 5 5 5 4 4 4 4 4 4 4 5 5 4 4 5 5 5 5 5 5 5 5 5 5 5 6 7 7
1 1 7 8 1 5 6 5 6 6 5 4 5 5 5 5 5 5 4 4 5 4 4 4 4 4 4 4 4 4 5 5 5 5 6 5 5 6 6 5 6 6 7 7
2 4 8 7 1 2 4 6 4 6 5 3 3 3 4 2 2 3 4 4 4 4 4 4 4 3 3 4 4 5 5 5 5 5 6 6 6 7 6 5 6 6 7 7
3 3 7 6 2 1 3 5 3 4 5 3 2 2 5 3 3 4 3 3 3 3 3 3 4 3 3 4 5 5 6 6 6 6 6 7 7 7 6 6 7 7 7 7
4 5 8 4 2 1 3 6 4 2 3 2 3 4 4 5 5 4 4 4 3 3 3 4 4 3 4 5 6 6 5 6 6 6 6 7 7 6 6 6 6 6 8 8
3 4 9 1 2 4 5 3 3 2 2 2 3 4 4 5 5 5 5 4 3 3 4 4 3 3 5 6 6 5 5 6 6 6 6 5 6 6 6 6 6 6 7 7
7 7 3 2 4 3 1 2 3 3 3 2 3 4 5 5 5 5 4 4 4 3 5 5 4 3 5 6 5 5 5 6 6 6 6 6 6 6 6 5 5 6 6 6
4 6 4 4 3 3 2 3 3 3 3 2 3 4 4 4 4 4 4 4 4 4 4 6 5 5 5 5 5 4 6 6 6 5 5 5 5 5 5 5 5 6 6 6
4 5 5 4 4 4 3 2 2 3 2 2 2 4 4 4 4 4 4 4 3 4 5 6 6 6 6 5 4 4 5 5 6 5 5 5 4 4 5 6 7 7 6 5
6 5 4 6 4 3 3 3 3 3 3 3 2 3 3 4 4 4 4 4 4 4 5 6 6 6 6 5 4 4 5 5 4 4 4 4 4 4 6 7 10 11 10 9
6 4 4 6 5 3 3 4 3 3 3 4 3 2 2 3 3 3 4 4 5 5 5 5 5 6 6 5 4 4 5 5 4 4 4 4 4 4 5 6 7 9 10 10
3 2 4 4 4 4 3 3 2 2 2 2 2 2 2 3 3 4 4 5 5 5 5 5 5 6 6 5 5 5 5 6 5 4 4 4 4 4 4 5 5 5 6 9
3 2 4 4 4 3 2 2 2 2 3 3 2 2 2 3 4 5 5 4 4 5 5 5 6 7 7 5 5 5 5 4 4 4 4 4 4 4 4 5 5 5 4 6
4 3 2 2 3 3 2 2 2 3 3 3 3 3 3 3 4 4 4 4 4 5 5 5 6 7 6 6 5 4 4 7 7 5 4 4 4 4 4 4 4 4 4 5
1 2 3 3 4 4 3 3 2 2 3 3 3 4 3 3 4 4 5 4 4 4 5 5 6 6 6 5 5 4 4 5 8 5 4 4 4 4 4 4 4 4 5 6
3 4 4 4 4 3 3 3 2 2 3 3 3 3 3 3 4 5 5 5 5 5 5 5 5 6 5 5 4 4 4 4 4 4 4 4 4 4 4 4 4 5 5 6
2 2 2 2 2 2 2 2 2 2 2 2 2 3 3 3 3 4 4 4 5 6 6 6 10 6 6 7 7 3 4 4 4 5 4 7 6 4 4 4 4 4 5 5
3 2 2 2 2 1 1 2 2 2 2 2 2 2 3 4 3 4 4 4 3 4 6 7 6 5 6 6 7 3 4 4 5 5 5 4 4 4 4 4 5 5 5 4
3 3 2 2 2 2 2 1 1 1 2 2 2 2 3 4 4 3 3 4 5 5 5 8 5 5 5 6 6 3 3 4 4 4 5 5 5 5 5 5 5 5 5 5
3 2 2 2 2 3 2 1 1 1 2 2 2 2 3 4 4 3 3 3 5 8 6 4 4 7 8 8 3 3 4 4 4 4 4 4 4 4 5 5 5 5 5 5
2 2 2 2 2 2 3 2 2 1 2 2 3 3 3 3 3 3 4 4 4 8 6 4 8 11 11 5 3 4 4 4 4 4 4 4 4 4 4 5 5 5 5 5
2 2 2 2 1 2 2 3 3 2 2 2 2 3 2 3 3 2 2 6 9 9 5 7 11 11 10 4 3 4 4 4 4 4 4 4 4 4 4 5 5 5 5 5
2 2 2 2 2 2 2 2 3 2 3 2 3 3 2 2 2 3 3 4 8 8 5 8 11 11 6 4 4 4 4 4 4 4 4 4 4 4 4 4 5 5 5 5
1 1 1 2 1 1 2 2 2 2 2 3 3 3 3 2 2 3 3 4 5 7 5 4 5 6 4 4 4 4 4 5 5 4 4 4 4 5 4 5 6 5 5 5
2 2 2 2 2 2 2 1 2 2 2 3 4 3 3 3 3 3 4 4 4 4 4 4 4 4 4 4 4 4 4 4 4 4 4 4 4 4 4 5 5 5 5 5
Wind_Direction
265 278 208 229 229 202 205 213 219 243 246 262 268 267 271 268 272 276 280 274 269 266 269 274 276 272 267 271 272 272 267 264 263 266 266 266 268 268 268 265 261 251 251 254
280 280 259 269 255 224 228 233 239 261 268 264 275 278 276 267 259 259 268 273 277 277 278 275 273 275 277 274 272 268 262 264 267 268 267 266 267 269 271 268 266 257 250 250
266 300 330 268 235 209 214 216 205 233 250 278 292 277 261 260 255 252 259 269 271 272 269 269 267 267 267 269 274 267 265 268 268 266 268 269 271 272 268 267 266 264 256 249
240 34 244 248 215 192 209 240 226 240 262 261 260 275 276 260 242 251 261 269 273 277 280 282 277 275 275 275 272 268 267 268 269 269 270 271 268 265 263 265 261 261 262 253
186 232 269 288 273 175 199 265 239 239 264 289 309 316 302 279 249 256 268 272 275 278 282 281 278 275 276 279 277 273 272 271 269 265 265 267 265 262 262 261 262 259 261 258
177 215 245 260 290 243 125 279 272 227 251 276 344 303 285 321 327 317 309 301 298 301 304 289 284 276 273 277 278 274 273 273 270 263 260 262 262 263 262 258 258 261 263 259
204 231 259 265 281 120 169 263 314 255 244 228 229 244 282 315 319 318 315 312 312 310 303 295 294 290 283 283 278 280 283 281 274 267 262 262 261 260 258 259 261 259 262 261
178 218 254 259 127 180 227 294 309 290 275 256 275 291 303 312 315 321 322 321 321 316 309 306 301 293 287 283 285 289 287 285 281 275 269 265 259 259 256 252 256 258 260 264
199 220 255 179 200 235 249 279 292 290 296 282 290 295 304 309 310 312 311 313 315 309 309 310 304 291 283 288 293 294 295 290 286 283 275 269 258 255 255 246 247 253 254 259
255 266 273 269 284 300 281 271 288 292 289 278 282 293 302 305 308 309 311 311 315 316 312 310 310 302 287 291 293 294 295 296 293 289 284 278 268 249 248 245 247 251 253 257
259 283 312 287 263 272 284 294 305 311 297 277 277 295 298 303 306 306 310 313 309 306 306 306 311 308 304 301 298 297 296 299 300 296 291 283 281 264 258 249 247 252 252 253
238 241 237 268 279 271 275 284 282 299 312 307 284 282 298 300 302 305 305 308 311 311 310 309 311 310 310 310 304 300 303 307 304 303 300 293 288 291 283 275 273 270 268 267
248 272 264 277 291 286 272 281 288 288 279 295 305 298 303 305 310 313 312 313 309 309 308 309 313 312 313 314 311 303 300 304 303 302 301 299 292 292 299 304 293 285 280 279
267 281 284 282 285 296 296 303 315 322 311 301 306 317 318 313 316 318 312 307 307 312 313 316 319 316 316 316 314 309 306 306 307 301 301 302 302 300 297 300 307 307 301 296
286 271 264 283 303 318 322 331 347 339 338 340 336 327 319 315 313 311 310 313 320 322 322 325 325 321 324 322 317 311 309 309 308 308 306 304 306 306 303 300 299 301 308 312
304 314 304 300 306 317 328 329 322 316 325 328 329 325 320 314 311 314 321 328 326 321 321 324 320 318 323 322 319 316 312 315 319 315 312 311 311 308 309 310 310 311 310 311
300 300 302 302 301 306 306 298 287 294 310 316 314 318 325 329 330 331 331 332 323 313 314 316 314 318 321 321 317 311 310 314 324 324 318 315 313 311 311 311 312 312 311 313
255 260 256 254 260 281 304 314 308 305 302 303 314 326 331 330 322 319 323 328 330 327 323 318 316 321 324 323 318 312 313 317 320 319 318 316 314 314 314 312 313 313 315 321
303 299 298 294 276 262 279 300 306 309 309 313 322 323 318 316 313 315 324 332 333 329 324 322 329 339 327 322 328 321 324 325 325 324 322 322 326 325 322 320 319 318 319 322
337 337 341 342 343 323 306 312 318 323 320 321 327 332 332 327 325 325 328 323 310 300 305 318 326 326 322 320 333 328 329 328 325 324 324 324 323 324 325 325 324 324 325 327
339 342 348 354 349 345 333 320 325 322 324 329 325 316 315 318 324 325 328 323 320 320 322 330 335 324 320 328 334 337 334 331 326 322 322 323 324 326 328 329 329 328 329 330
332 337 342 347 352 343 339 341 337 328 332 336 331 322 322 322 325 323 308 294 308 323 333 327 322 326 334 340 345 341 335 331 327 324 325 325 325 326 328 329 329 329 329 329
327 332 336 338 337 327 335 346 343 335 326 319 313 309 305 303 310 315 316 319 317 325 335 323 326 333 342 353 349 340 335 332 329 326 326 326 324 323 324 326 326 326 326 327
341 344 339 341 2 15 357 345 346 340 325 315 311 305 302 311 316 305 291 315 327 330 334 327 334 339 347 354 342 335 330 326 322 322 323 324 325 326 325 325 324 325 326 328
344 347 351 356 357 342 328 332 342 344 341 333 327 325 318 302 296 309 318 320 325 334 333 332 337 341 348 338 333 326 322 317 317 322 324 324 323 323 321 320 321 321 323 323
346 340 331 325 318 319 325 334 335 330 334 332 330 330 329 326 316 313 316 317 319 327 330 325 327 331 330 324 321 319 316 318 325 327 322 318 317 316 316 317 319 318 317 316
351 351 350 345 340 334 328 328 322 321 323 316 313 320 326 327 324 322 320 318 320 321 318 316 318 318 318 317 317 316 314 313 312 312 313 312 310 309 309 309 307 308 308 308